Location: Le Hiès Ruisseau
(43.3000°N, 0.4500°W)
Time: 01:56:58
(UTC+00:00)

USA 215 - Pass Details

Date: 28 January 2023
Orbit: 1102 x 1106 km, 123.0° (Epoch: 26 March)

Event Time Altitude Azimuth Distance (km) Brightness Sun altitude
Rises 17:21:41 0° 136° (SE) 3,907 5.9 -3.1°
Reaches altitude 10° 17:24:10 10° 139° (SE) 2,952 5.3 -3.6°
Maximum altitude 17:30:41 72° 223° (SW) 1,152 3.7 -4.7°
Drops below altitude 10° 17:37:13 10° 308° (NW) 2,965 6.0 -5.8°
Sets 17:39:44 0° 311° (NW) 3,925 6.6 -6.2°
